Voltar ao catálogo

STARLINK-32346

AtivoComunicaçõesVLEO
NORAD 61849·PAYLOAD·🇺🇸 United States

Lançado Nov 7, 2024 de Cape Canaveral Space Force Station

Loading…

Próximas Passagens (próximas 24 horas)

TLE

AtualizadoSource: CelesTrak SupGP

Época: Sep 15, 2026, 02:40 UTC

1 61849C 24202E   26258.11159722 -.00034969  00000+0 -12668-2 0  2584
2 61849  42.9993 237.1893 0001321 267.8817 138.2914 15.27590642    15

Acompanhe STARLINK-32346 em tempo real com AllMySat

Download on the App Store